Maryland Science Center, MD

4:23 PM EST on December 06, 2019 (GMT -0500)
Maryland Science Center

Weather History for KDMH - October, 2019

Change the Weather History Date:

Thursday, October 17, 2019

  Actual Average Record
Temperature  
Mean Temperature 56 °F 60 °F  
Max Temperature 61 °F 68 °F 84 °F (2016)
Min Temperature 51 °F 51 °F 44 °F (2004)
Degree Days  
Heating Degree Days 9 6  
Month to date heating degree days 35 75  
Since 1 July heating degree days 35 93  
Cooling Degree Days 0 1  
Month to date cooling degree days 57 32  
Year to date cooling degree days 2046 1657  
Growing Degree Days 7 (Base 50)    
Moisture  
Dew Point 37 °F    
Average Humidity 51    
Maximum Humidity 59    
Minimum Humidity 42    
Precipitation  
Precipitation 0.00 in 0.10 in 0.71 in (2006)
Month to date precipitation 1.55 1.81  
Year to date precipitation 32.42 33.27  
Sea Level Pressure  
Sea Level Pressure 29.65 in    
Wind  
Wind Speed - (North)    
Max Wind Speed -    
Max Gust Speed -    
T = Trace of Precipitation, MM = Missing Value Source: NWS Daily Summary

Daily Weather History Graph

Daily Weather History Graph

Search for Another Location

Airport or City:

Astronomy

Oct. 17, 2019 Rise Set
Actual Time 7:18 AM EDT 6:25 PM EDT
Civil Twilight 6:50 AM EDT 6:52 PM EDT
Nautical Twilight 6:19 AM EDT 7:23 PM EDT
Astronomical Twilight 5:48 AM EDT 7:54 PM EDT
Moon 8:56 PM EDT (10/17) 10:46 AM EDT (10/17)
Length of Visible Light 12h 01m
Length of Day
11h 07m
Waning Gibbous, 87% of the Moon is Illuminated
Oct 17
Waning Gibbous
Oct 21
Last Quarter
Oct 27
New
Nov 4
First Quarter
Nov 12
Full

Hourly Weather History & Observations

Time (EDT) Temp. Dew Point Humidity Pressure Visibility Wind Dir Wind Speed Gust Speed Precip Events Conditions
12:54 AM 53.1 °F 39.0 °F 59% 29.54 in - North - - N/A   Unknown
1:54 AM 53.1 °F 39.0 °F 59% 29.53 in - North - - N/A   Unknown
2:54 AM 53.1 °F 39.0 °F 59% 29.53 in - North - - N/A   Unknown
3:54 AM 53.1 °F 39.0 °F 59% 29.52 in - North - - N/A   Unknown
4:54 AM 54.0 °F 39.0 °F 57% 29.53 in - North - - N/A   Unknown
5:54 AM 54.0 °F 37.0 °F 53% 29.56 in - North - - N/A   Unknown
9:54 AM 55.9 °F 37.9 °F 51% 29.60 in - North - - N/A   Unknown
11:54 AM 60.1 °F 37.9 °F 44% 29.61 in - North - - N/A   Unknown
12:54 PM 59.0 °F 37.0 °F 44% 29.63 in - North - - N/A   Unknown
1:54 PM 61.0 °F 37.0 °F 41% 29.63 in - North - - N/A   Unknown
2:54 PM 59.0 °F 37.0 °F 44% 29.64 in - North - - N/A   Unknown
3:54 PM 57.9 °F 37.0 °F 46% 29.66 in - North - - N/A   Unknown
4:54 PM 57.0 °F 37.9 °F 49% 29.68 in - North - - N/A   Unknown
5:54 PM 55.0 °F 37.0 °F 51% 29.70 in - North - - N/A   Unknown
6:54 PM 55.0 °F 37.0 °F 51% 29.73 in - North - - N/A   Unknown
7:54 PM 55.0 °F 36.0 °F 49% 29.75 in - North - - N/A   Unknown
8:54 PM 54.0 °F 35.1 °F 49% 29.77 in - North - - N/A   Unknown
9:54 PM 54.0 °F 35.1 °F 49% 29.79 in - North - - N/A   Unknown
10:54 PM 53.1 °F 35.1 °F 50% 29.81 in - North - - N/A   Unknown
11:54 PM 52.0 °F 35.1 °F 53% 29.81 in - North - - N/A   Unknown